sat.trackr.live / text

‹ back to catalog

RASSVET-3 3

NORAD 68362 · 2026-061C

PAYLOAD ACTIVE UNKNOWN

§ Identity

Operator
Country
CIS
Launch date
2026-03-23
Launch site
PLMSC
Launch vehicle
Mass (kg)
RCS (m²)

External: N2YO · Heavens-Above · Gunter

§ Orbital elements

Epoch: 2026-05-25T03:44:47.855616Z

Period
92.10 min
Inclination
82.2972°
Eccentricity
0.0002985
Mean motion
15.63466582 rev/d
Perigee alt
375.6 km
Apogee alt
379.7 km
Semi-major
6,755.8 km
B*
3.7813e-4
RAAN
38.4150°
Arg perigee
136.5478°
Mean anomaly
223.6015°
Rev number
989

§ Raw data

RASSVET-3 31 68362U 26061C   26145.15610944  .00035024  00000+0  37813-3 0  99962 68362  82.2972  38.4150 0002985 136.5478 223.6015 15.63466582  9897

JSON: /api/v1/satellites/68362 · /tle

For live sub-satellite position, see the globe view (requires WebGL).

§ Visibility from observer

Set your observer location to see the next 7 days of passes ≥ 10°. The values pass through the URL so the page stays shareable.

No JS? Fill the form by hand. The geolocation button needs JavaScript.